Status Flugplatz

Der Flugplatz ist offen
PPR Regelung ! PJE !!!

123.15 MHz
RWY 05/23

flüger beizli - Öffnungszeiten
Freitag ab 16:00
Samstag +Sonntag ab 11:00
Bei schönem Wetter öffnen wir früher! Tel.: 079 234 07 74

So gelangen Sie zum Flugplatz Biel-Kappelen

Öffentliche Verkehrsmittel

Benützen Sie den Bus ab Biel (28 Min.) oder Lyss (7 Min.).
Bushaltestelle 'Worben Bad'

Privatfahrzeug

Der Flugplatz Biel-Kappelen ist mit dem Auto oder Motorrad ab Biel in 10 Minuten und ab Bern in 20 Minuten erreichbar.
Von der Autobahnausfahrt 'Lyss Nord' in Richtung Biel erreichen sie den Flugplatz nach ca 800m  auf der linken Seite.

Fahrrad

Der Flugplatz liegt an der Veloroute #64 Lötschberg-Jura (Kandersteg-Boncourt)

siehe auch: Veloland Schweiz

...oder natürlich mit dem Flugzeug - siehe Pilots only

 

 

Wetter Kappelen

 


 

[source: ADDS]
METAR
LSZG 171450Z 28014KT 2000 SN VV018 02/M01 Q1014 NOSIG =
TAF
TAF LSZG 171425Z 1715/1724 26015G30KT 9999 FEW030 SCT050 TEMPO 1715/1721 2000 SHGSSN BKN012TCU PROB30 TEMPO 1715/1718 1200 TSGSSN SCT012CB TEMPO 1721/1724 4500 BKN010 =
SR / SS: 07:12 / 16:12 UTC ( 2018-01-17)

 


 

Flugplatz Biel-Kappelen LSZP - 123.15MHz - 032 384 46 84

Email: Diese E-Mail-Adresse ist vor Spambots geschützt! Zur Anzeige muss JavaScript eingeschaltet sein!
www.lszp.ch
2017 © by mb

Zum Anfang